ICEYE-X5

导读

ICEYE-X5由芬兰冰眼公司研发,于2019年7月5日发射升空,属于冰眼系列合成孔径雷达遥感卫星。该卫星搭载先进X波段SAR系统,依托小型卫星平台实现高分辨率成像,最高可达25厘米分辨率,支持多种成像模式,可全天候对地球任意区域持续监测。服务于海冰观测、自然灾害应对、港口监控、环境监测等多领域,帮助客户快速精准捕捉地表变化,为决策提供及时可靠的遥感数据支撑。

基本信息
目录编号:
44389
目录名称:
ICEYE-X5
国际标识:
2019-038C
轨道中心:
EARTH
卫星名称:
ICEYE-X5
卫星全名:
--
卫星状态:
在轨 (已飞行2579 天)
发射日期:
2019-07-05 UTC
国别 :
(FI)
星等 :
--
轨道信息
数据来源 国际轨道数据
星历时间: 2026-07-27T23:08:35+0800
6小时前
查看轨道信息
半长轴: 6769.081km
偏心率: 0.0007015
轨道倾角: 97.867°
近地点辐角 115.817°
升交点赤经 267.492°
平近点角 244.381°
近地点: 386.195km
远地点: 395.693km
周期: 92.375分钟
每日圈数: 15.588642
详细信息
使用方式:
暂无
2D轨道图
3D轨道图
轨道高度分析图
轨道倾角分析图
轨道综合分析图
查看轨道综合分析图